Regional Weather Roundup
Issued by NWS

Home | Current Version | Previous Version | Graphics & Text | Print | Product List | Glossary On
Versions: 1 2 3 4 5 6 7 8 9 10 11 12 13 14 15 16 17 18 19 20 21 22 23 24 25 26 27 28 29 30 31 32 33 34 35 36 37 38 39 40 41 42 43 44 45 46 47 48 49 50
000
ASUS43 KIND 042309
RWRIN

WEATHER ROUNDUP FOR INDIANA
NATIONAL WEATHER SERVICE INDIANAPOLIS IN
700 PM EDT MON MAY 04 2015

NOTE: "FAIR" INDICATES FEW OR NO CLOUDS BELOW 12,000 FEET WITH NO
SIGNIFICANT WEATHER AND/OR OBSTRUCTIONS TO VISIBILITY.

* - STATION DOES NOT REPORT WEATHER SUCH AS PRECIPITATION OR FOG.

+ - STATION NOT QUALITY CONTROLLED BY THE NATIONAL WEATHER SERVICE.
    USE DATA WITH CAUTION...ESPECIALLY DEWPOINT AND RELATIVE
    HUMIDITY OBSERVATIONS.

INZ001>003-010>013-019-020-050000-
NORTHWEST INDIANA

CITY           SKY/WX    TMP DP  RH WIND       PRES   REMARKS
GARY /AIRPORT/ CLOUDY    61 N/A N/A E12       30.15S
KNOX *+        CLOUDY    70  45  40 SW3       30.13S
LA PORTE +     PTSUNNY   70  59  68 N8        30.15R
MICHIGAN CITY+ PTSUNNY   64  50  59 NE5       30.15S
MONTICELLO +   CLOUDY    65  63  90 CALM      30.14S
VALPARAISO     PTSUNNY   68  58  70 N6        30.14R

$$

LMZ046-743>745-050000-
SOUTHERN LAKE MICHIGAN

STATION/POSITION TIME  TEMP    WIND        PRES    WAVE
                       AIR SEA DIR/SP/G            HT
                 (UTC) (F)     (DEG/KT/KT) (MB)    (FT)
BURNS HARBOR     2300   54      70/ 11/ 14 1021.0F
MICHIGAN CITY    2300   54      40/ 14/ 15   N/A
5NW MICH CITY    2300   51 50   80/  6/  8   N/A     1

$$

INZ004-005-014>016-021>024-050000-
NORTH CENTRAL INDIANA

CITY           SKY/WX    TMP DP  RH WIND       PRES   REMARKS
GOSHEN         PTSUNNY   70  61  73 W9        30.14S
LOGANSPORT +   LGT RAIN  64  59  82 CALM      30.16S
PERU/GRISSOM   LGT RAIN  67  62  81 SW5       30.15S
ROCHESTER +    CLOUDY    70  63  78 S6        30.15S
SOUTH BEND     PTSUNNY   71  57  61 N6        30.15R
WARSAW +       CLOUDY    68  61  77 CALM      30.15S

$$

INZ006>009-017-018-025>027-050000-
NORTHEAST INDIANA

CITY           SKY/WX    TMP DP  RH WIND       PRES   REMARKS
ANGOLA *+      SUNNY     73  59  60 W9        30.14R
AUBURN +       PTSUNNY   70  59  68 SW7       30.16R
FORT WAYNE     CLOUDY    66  61  84 SW8       30.17R
HUNTINGTON +   CLOUDY    66  61  84 CALM      30.16S

$$

INZ028-029-035-036-043>045-051>053-050000-
WEST CENTRAL INDIANA

CITY           SKY/WX    TMP DP  RH WIND       PRES   REMARKS
CRAWFORDSVL +  CLOUDY    64  53  68 N8        30.16R
GREENCASTLE +  PTSUNNY   73  54  49 S3        30.13F
LAFAYETTE      LGT RAIN  63  62  97 SE7       30.13F FOG
TERRE HAUTE    PTSUNNY   79  58  48 CALM      30.11S

$$

INZ030>032-037>040-046>048-054>057-064-065-050000-
CENTRAL INDIANA

CITY           SKY/WX    TMP DP  RH WIND       PRES   REMARKS
CP ATTERBURY + PTSUNNY   75  59  57 E3        30.15S
COLUMBUS       MOSUNNY   73  59  60 S5        30.15S
FISHERS *+     PTSUNNY   70  63  78 NE8       30.14S
FRANKFORT +    TSTM      67  67 100 W5        30.20R
GREENWOOD *+   PTSUNNY   75  57  53 S5        30.15S
INDIANAPOLIS   CLOUDY    75  58  55 S9        30.13R
-EAGLE CREEK   PTSUNNY   75  58  55 S5        30.13S
KOKOMO *+      CLOUDY    68  63  83 SW6       30.16R
MARION +       CLOUDY    67  60  78 SW3       30.17S
MT COMFORT *+  PTSUNNY   75  46  35 SW6       30.16R
SHELBYVILLE    PTSUNNY   77  59  53 S6        30.14F
ZIONSVILLE +   TSTM      64  59  81 S10G33    30.16S VSB 3/4

$$

INZ033-034-041-042-049-050-058-059-050000-
EAST CENTRAL INDIANA

CITY           SKY/WX    TMP DP  RH WIND       PRES   REMARKS
MUNCIE         PTSUNNY   70  59  68 NW5       30.17S

$$

INZ060-061-067>069-081>083-085>088-050000-
SOUTHWEST INDIANA

CITY           SKY/WX    TMP DP  RH WIND       PRES   REMARKS
EVANSVILLE     MOSUNNY   81  55  40 S8        30.14S
HUNTINGBURG *+ MOSUNNY   81  55  41 SW14      30.14S
WASHINGTON +   PTSUNNY   80  49  33 SW13G18   30.12S

$$

INZ062-063-066-070>080-084-089>092-050000-
SOUTH CENTRAL AND SOUTHEAST INDIANA

CITY           SKY/WX    TMP DP  RH WIND       PRES   REMARKS
BEDFORD +      PTSUNNY   79  54  41 S6        30.14S
BLOOMINGTON    PTSUNNY   79  56  45 SW6       30.14R
MADISON *+     CLOUDY    77  54  44 SW5       30.17F
NORTH VERNON + PTSUNNY   77  59  53 S6        30.16S
SEYMOUR +      PTSUNNY   79  59  50 SW10      30.14S

$$




USA.gov is the U.S. government's official web portal to all federal, state and local government web resources and services.